Sanders, Before Seed, Beyond Harvest
OptiGro Location.

Weather

  • Currently

    Reported at Greenville, Greenville Municipal Airport, MS
    4:53 AM CST SAT MAY 27 2017
  • 72°F22°C
  • Clear
    Clear
  • Feels Like:72°F22°CDew Point:70°F21°CHumidity:94% Winds:S 8 mph 13 kph
    Pressure:29.91 in1013 hPaVisibility:9.00 miles14481.00 meters
Time Weather Temp Dew Point
Humidity Winds Visibility Pressure Precipitation
1 hr 24 hr
Saturday, May 27
06:35 06:35 Partly Cloudy Partly Cloudy 73°F22°C 73°F22°C 100% S 7 mphS 11 kph 10.0 miles16.1 km 29.91 in1013 hPa 0.00 in0.00 mm --
06:15 06:15 Partly Cloudy Partly Cloudy 72°F22°C 72°F22°C 100% S 7 mphS 11 kph 10.0 miles16.1 km 29.91 in1013 hPa 0.00 in0.00 mm --
05:55 05:55 Sunny Sunny 72°F22°C 72°F22°C 100% S 6 mphS 9 kph 10.0 miles16.1 km 29.91 in1013 hPa 0.00 in0.00 mm --
05:35 05:35 Clear Clear 73°F23°C 73°F23°C 100% S 6 mphS 9 kph 10.0 miles16.1 km 29.91 in1013 hPa 0.00 in0.00 mm --
05:15 05:15 Clear Clear 73°F23°C 73°F23°C 100% S 7 mphS 11 kph 10.0 miles16.1 km 29.91 in1013 hPa 0.00 in0.00 mm --
04:55 04:55 Clear Clear 73°F23°C 73°F23°C 100% S 9 mphS 15 kph 10.0 miles16.1 km 29.88 in1012 hPa 0.00 in0.00 mm --
04:35 04:35 Clear Clear 73°F23°C 73°F23°C 100% S 9 mphS 15 kph 10.0 miles16.1 km 29.88 in1012 hPa 0.00 in0.00 mm --
04:15 04:15 Clear Clear 74°F23°C 74°F23°C 100% S 9 mphS 15 kph 10.0 miles16.1 km 29.88 in1012 hPa 0.00 in0.00 mm --
03:55 03:55 Clear Clear 74°F23°C 74°F23°C 100% S 10 mphS 17 kph 10.0 miles16.1 km 29.88 in1012 hPa 0.00 in0.00 mm --
03:35 03:35 Clear Clear 74°F24°C 74°F24°C 100% S 10 mphS 17 kph 10.0 miles16.1 km 29.88 in1012 hPa 0.00 in0.00 mm --
03:15 03:15 Clear Clear 74°F24°C 74°F24°C 100% S 9 mphS 15 kph 10.0 miles16.1 km 29.88 in1012 hPa 0.00 in0.00 mm --
02:55 02:55 Clear Clear 74°F24°C 74°F24°C 99% S 9 mphS 15 kph 10.0 miles16.1 km 29.91 in1013 hPa 0.00 in0.00 mm --
02:35 02:35 Partly Cloudy Partly Cloudy 75°F24°C 74°F24°C 98% S 8 mphS 13 kph 10.0 miles16.1 km 29.91 in1013 hPa 0.00 in0.00 mm --
02:15 02:15 Mostly Cloudy Mostly Cloudy 76°F24°C 74°F24°C 96% SSW 8 mphSSW 13 kph 10.0 miles16.1 km 29.91 in1013 hPa 0.00 in0.00 mm --
01:55 01:55 Cloudy Cloudy 76°F24°C 74°F24°C 96% SSW 8 mphSSW 13 kph 10.0 miles16.1 km 29.91 in1013 hPa 0.00 in0.00 mm --
01:35 01:35 Cloudy Cloudy 76°F24°C 74°F23°C 92% SSW 8 mphSSW 13 kph 10.0 miles16.1 km 29.91 in1013 hPa 0.00 in0.00 mm --
01:15 01:15 Cloudy Cloudy 76°F25°C 73°F23°C 90% SSW 8 mphSSW 13 kph 10.0 miles16.1 km 29.91 in1013 hPa 0.00 in0.00 mm --
00:55 00:55 Cloudy Cloudy 77°F25°C 73°F23°C 89% S 8 mphS 13 kph 10.0 miles16.1 km 29.91 in1013 hPa 0.00 in0.00 mm --
00:35 00:35 Cloudy Cloudy 77°F25°C 73°F23°C 88% S 8 mphS 13 kph 10.0 miles16.1 km 29.91 in1013 hPa 0.00 in0.00 mm --
00:15 00:15 Cloudy Cloudy 77°F25°C 73°F23°C 89% S 8 mphS 13 kph 10.0 miles16.1 km 29.91 in1013 hPa 0.00 in0.00 mm --